[[{"header":{"parameterUnit":"m.s-1","parameterCategory":1,"la1":30.2991,"la2":30.254,"lo1":-89.0895,"lo2":-89.0444,"dy":0.0017,"dx":0.0017,"nx":28,"ny":28,"refTime":"2023-08-18T03:00:00:Z","depth":0,"parameterNumber":2,"parameterNumberName":"U-component_of_WINDS"},"data":[0,0,0,0,0,0,0,0,0,0,0,0,0,0,0,0,0,0,0,0,0,0,0,0,0,0,0,0,0,0,0,0,0,0,0,0,0,0,0,0,0,0,0,0,0,0,0,0,0,0,0,0,0,0,0,0,0,0,3.3817,3.3818,0,3.3911,3.3912,3.3913,3.3874,3.3871,3.3869,3.3867,3.3962,3.3966,3.3971,0,0,0,0,0,0,0,0,0,0,0,0,0,3.3599,3.3603,3.3817,3.3818,3.3819,3.3911,3.3912,3.3914,3.3874,3.3871,3.3869,3.3866,3.396,3.3966,3.3971,0,0,0,0,0,0,0,0,0,0,0,0,0,3.3693,3.3605,3.3816,3.381,3.3811,3.3911,3.3912,3.3914,3.3875,3.3871,3.3868,3.3865,3.3958,3.3965,3.3972,3.4083,0,0,3.3993,3.3996,0,0,0,0,0,0,0,0,3.3688,3.3702,3.381,3.3811,3.3812,3.3877,3.387,3.397,3.3876,3.385,3.3867,3.3863,3.3936,3.3945,3.397,3.4087,3.4091,3.3994,3.3998,3.4001,3.4003,0,0,0,0,0,0,0,3.3682,3.3697,3.3854,3.3812,3.3813,3.3802,3.3812,3.3889,3.3911,3.3852,3.385,3.3862,3.3936,3.3963,3.3972,3.4093,3.3993,3.4,3.4004,3.4007,3.4304,3.4308,0,0,0,0,0,0,3.3675,3.3692,3.3851,3.3857,3.374,3.3809,3.382,3.386,3.391,3.3915,3.3864,3.3859,3.3953,3.3964,3.3975,3.4107,3.4001,3.4007,3.4011,3.4301,3.4305,3.4309,0,0,0,0,0,0,3.3671,3.369,3.3847,3.3774,3.3793,3.3816,3.3861,3.3863,3.389,3.3919,3.3923,3.3888,3.3951,3.3965,3.4056,3.4109,3.401,3.4017,3.4296,3.4302,3.4307,3.4372,0,0,0,0,0,0,3.3665,3.3689,3.3731,3.3775,3.3797,3.3928,3.3865,3.3868,3.3903,3.3897,3.3943,3.3947,3.3949,3.4046,3.4063,3.4117,3.4022,3.4291,3.4299,3.4305,3.4365,3.4379,3.4391,0,0,0,0,0,3.3657,3.3746,3.3734,3.3753,3.3851,3.3931,3.3943,3.3945,3.3907,3.395,3.3969,3.3945,3.4101,3.4056,3.4074,3.4132,3.4288,3.4297,3.4305,3.4359,3.4376,3.4391,0,0,0,0,0,0,3.3707,3.3751,3.3739,3.3844,3.3884,3.3924,3.3978,3.3963,3.4014,3.4006,3.4005,3.4016,3.4109,3.413,3.4078,3.4241,3.4189,3.4202,3.4224,3.424,3.4253,3.4245,3.4028,0,0,0,0,0,3.373,3.3792,3.3827,3.3917,3.3937,3.3954,3.3989,3.3987,3.4028,3.4044,3.4069,3.4109,3.4167,3.4205,3.426,3.4369,3.4377,3.4417,3.443,3.4441,3.4451,3.4509,3.4526,3.4337,3.4337,3.4337,0,0,3.3778,3.381,3.3849,3.3927,3.3958,3.4021,3.3969,3.4038,3.4084,3.4054,3.4141,3.4162,3.4206,3.4306,3.4351,3.4326,3.4506,3.4452,3.446,3.4464,3.4519,3.4537,3.4553,3.4343,3.4342,3.4341,0,0,3.3898,3.393,3.4007,3.4039,3.4087,3.4097,3.4116,3.4159,3.4171,3.4259,3.4238,3.4293,3.4393,3.4425,3.4455,3.4588,3.4568,3.4606,3.4673,3.4729,3.4744,3.4757,3.4803,3.4819,3.4616,3.4617,3.4617,0,3.3952,3.4047,3.4048,3.4119,3.4153,3.4131,3.4209,3.424,3.4302,3.4326,3.4297,3.4422,3.4451,3.4557,3.459,3.4615,3.4635,3.4599,3.4742,3.4755,3.4767,3.4811,3.4828,3.4621,3.462,3.462,3.4619,0,3.411,3.4176,3.4232,3.4294,3.4335,3.4409,3.4421,3.4462,3.4457,3.4471,3.456,3.4594,3.4654,3.468,3.4675,3.4786,3.4769,3.4741,3.4688,3.4789,3.483,3.4847,3.4627,3.4625,3.4624,3.4623,0,0,3.4262,3.4324,3.4345,3.4372,3.4423,3.4474,3.4547,3.4607,3.4641,3.4686,3.4746,3.4832,3.4806,3.484,3.4839,3.4888,3.499,3.4854,3.4855,3.4877,3.5112,3.513,3.515,3.4978,3.4981,3.4984,3.5107,0,3.4384,3.4512,3.4516,3.4632,3.4692,3.4672,3.4735,3.4773,3.4788,3.4841,3.4857,3.4917,3.488,3.49,3.4949,3.4967,3.5036,3.4959,3.5032,3.5034,3.5019,3.5171,3.5192,3.5307,3.5123,3.5126,3.5128,0,3.4544,3.4593,3.4716,3.4758,3.4783,3.484,3.4895,3.4947,3.4989,3.4996,3.5034,3.5026,3.5099,3.5046,3.5145,3.5092,3.5123,3.5137,3.5141,3.5146,3.5086,3.5179,3.5344,3.536,3.5154,3.5152,3.515,0,3.464,3.4738,3.4824,3.4848,3.49,3.494,3.4963,3.5002,3.5038,3.5086,3.5109,3.5165,3.5196,3.5239,3.5246,3.5207,3.5346,3.5293,3.5352,3.5352,3.538,3.5378,3.5551,3.5404,3.5404,3.5404,3.5403,0,3.4775,3.485,3.4867,3.492,3.5003,3.5007,3.5089,3.5109,3.5144,3.52,3.5187,3.5238,3.5245,3.5299,3.5305,3.5386,3.54,3.5407,3.5407,3.5407,3.5406,3.5425,3.5416,3.5408,3.5407,3.5406,3.5405,0,3.4896,3.4911,3.5002,3.5044,3.5056,3.5116,3.5151,3.5201,3.5215,3.5285,3.5301,3.5323,3.5386,3.5397,3.5471,3.5475,3.5571,3.5564,3.5556,3.5555,3.5612,3.5606,3.5802,3.5827,3.5666,3.5667,3.5669,0,3.498,3.5037,3.5085,3.5122,3.5147,3.5206,3.5243,3.5249,3.5287,3.534,3.5383,3.5444,3.5493,3.5594,3.5615,3.5671,3.5665,3.5729,3.5673,3.567,3.5663,3.5659,3.5664,3.5739,3.5741,3.5742,3.5744,0,3.5127,3.5132,3.5185,3.5242,3.5286,3.5331,3.5373,3.5403,3.5415,3.5459,3.5523,3.5561,3.5636,3.5696,3.5753,3.5775,3.5761,3.5762,3.5778,3.5777,3.5769,3.5772,3.5584,3.5757,3.5755,3.5754,3.5754,3.5753,3.5231,3.528,3.5322,3.5382,3.5415,3.5454,3.5503,3.5523,3.5577,3.5639,3.5639,3.5709,3.5749,3.5823,3.585,3.5903,3.5883,3.5907,3.5912,3.5918,3.5922,3.5763,3.5914,3.5913,3.5913,3.5913,3.5913,0,3.5375,3.5401,3.5457,3.5516,3.5563,3.5548,3.5593,3.5633,3.5695,3.5734,3.5783,3.5856,3.5914,3.5941,3.5999,3.6036,3.6031,3.6051,3.6047,3.6052,3.5938,3.5917,3.6054,3.6054,3.6054,3.6054,3.6054,3.6054,3.5456,3.5539,3.5548,3.5647,3.5672,3.574,3.5768,3.5804,3.5835,3.5917,3.5966,3.5984,3.6017,3.6077,3.613,3.6136,3.6157,3.618,3.6183,3.6075,3.6061,3.6047,3.6027,3.6185,3.6185,3.6292,3.6293,3.6294]},{"header":{"parameterUnit":"m.s-1","parameterCategory":1,"la1":30.2991,"la2":30.254,"lo1":-89.0895,"lo2":-89.0444,"dy":0.0017,"dx":0.0017,"nx":28,"ny":28,"refTime":"2023-08-18T03:00:00:Z","depth":0,"parameterNumber":3,"parameterNumberName":"V-component_of_WINDS"},"data":[0,0,0,0,0,0,0,0,0,0,0,0,0,0,0,0,0,0,0,0,0,0,0,0,0,0,0,0,0,0,0,0,0,0,0,0,0,0,0,0,0,0,0,0,0,0,0,0,0,0,0,0,0,0,0,0,0,0,-0.2203,-0.2203,0,-0.2197,-0.2197,-0.2197,-0.2202,-0.2202,-0.2203,-0.2203,-0.2196,-0.2196,-0.2195,0,0,0,0,0,0,0,0,0,0,0,0,0,-0.2216,-0.2216,-0.2203,-0.2203,-0.2203,-0.2197,-0.2197,-0.2197,-0.2202,-0.2202,-0.2203,-0.2203,-0.2196,-0.2196,-0.2195,0,0,0,0,0,0,0,0,0,0,0,0,0,-0.2211,-0.2216,-0.2203,-0.2204,-0.2205,-0.2197,-0.2197,-0.2197,-0.2202,-0.2202,-0.2203,-0.2203,-0.2196,-0.2196,-0.2195,-0.2186,0,0,-0.2193,-0.2193,0,0,0,0,0,0,0,0,-0.2211,-0.221,-0.2204,-0.2204,-0.2204,-0.2201,-0.22,-0.2193,-0.2202,-0.2203,-0.2203,-0.2203,-0.2197,-0.2197,-0.2195,-0.2185,-0.2185,-0.2193,-0.2193,-0.2193,-0.2193,0,0,0,0,0,0,0,-0.2211,-0.221,-0.2201,-0.2204,-0.2204,-0.2205,-0.2205,-0.2198,-0.2198,-0.2203,-0.2203,-0.2203,-0.2197,-0.2195,-0.2195,-0.2185,-0.2193,-0.2193,-0.2192,-0.2192,-0.2168,-0.2168,0,0,0,0,0,0,-0.2212,-0.2211,-0.2201,-0.22,-0.2209,-0.2205,-0.2204,-0.2202,-0.2198,-0.2198,-0.2202,-0.2203,-0.2196,-0.2195,-0.2194,-0.2183,-0.2193,-0.2192,-0.2192,-0.2168,-0.2168,-0.2167,0,0,0,0,0,0,-0.2212,-0.2211,-0.2201,-0.2206,-0.2204,-0.2204,-0.2201,-0.2201,-0.2199,-0.2198,-0.2198,-0.22,-0.2196,-0.2195,-0.2188,-0.2183,-0.2192,-0.2191,-0.2169,-0.2168,-0.2168,-0.2161,0,0,0,0,0,0,-0.2212,-0.2211,-0.2207,-0.2206,-0.2204,-0.2195,-0.2201,-0.2201,-0.2199,-0.2199,-0.2196,-0.2196,-0.2197,-0.2189,-0.2187,-0.2183,-0.2191,-0.2169,-0.2168,-0.2168,-0.2162,-0.2161,-0.2159,0,0,0,0,0,-0.2213,-0.2205,-0.2207,-0.2206,-0.22,-0.2194,-0.2194,-0.2195,-0.2198,-0.2195,-0.2194,-0.2196,-0.2184,-0.2188,-0.2186,-0.2181,-0.2169,-0.2168,-0.2168,-0.2162,-0.2161,-0.2159,0,0,0,0,0,0,-0.2206,-0.2205,-0.2207,-0.2199,-0.2197,-0.2195,-0.2191,-0.2193,-0.2189,-0.219,-0.2191,-0.219,-0.2183,-0.2181,-0.2186,-0.2173,-0.2177,-0.2176,-0.2174,-0.2172,-0.2171,-0.2171,-0.2191,0,0,0,0,0,-0.2203,-0.2199,-0.2199,-0.2191,-0.219,-0.2191,-0.2188,-0.219,-0.2187,-0.2186,-0.2185,-0.2182,-0.2178,-0.2175,-0.2171,-0.2162,-0.2161,-0.2158,-0.2157,-0.2156,-0.2155,-0.215,-0.2149,-0.2165,-0.2165,-0.2165,0,0,-0.2198,-0.2197,-0.2194,-0.219,-0.2189,-0.2184,-0.219,-0.2185,-0.2182,-0.2185,-0.2178,-0.2178,-0.2175,-0.2167,-0.2163,-0.2165,-0.215,-0.2155,-0.2154,-0.2153,-0.2149,-0.2148,-0.2146,-0.2165,-0.2165,-0.2165,0,0,-0.2186,-0.2185,-0.2179,-0.2178,-0.2176,-0.2176,-0.2175,-0.2173,-0.2173,-0.2167,-0.2169,-0.2165,-0.2158,-0.2156,-0.2154,-0.2143,-0.2145,-0.2141,-0.2135,-0.2131,-0.2129,-0.2128,-0.2124,-0.2123,-0.214,-0.214,-0.214,0,-0.218,-0.2174,-0.2176,-0.2171,-0.2169,-0.2173,-0.2167,-0.2165,-0.2162,-0.216,-0.2163,-0.2154,-0.2153,-0.2145,-0.2142,-0.214,-0.2139,-0.2141,-0.2129,-0.2128,-0.2127,-0.2123,-0.2122,-0.214,-0.214,-0.214,-0.214,0,-0.2166,-0.2162,-0.2157,-0.2154,-0.2152,-0.2146,-0.2148,-0.2145,-0.2147,-0.2147,-0.214,-0.2139,-0.2135,-0.2133,-0.2134,-0.2125,-0.2126,-0.2129,-0.2134,-0.2125,-0.2122,-0.212,-0.2139,-0.2139,-0.214,-0.214,0,0,-0.2148,-0.2148,-0.2146,-0.2145,-0.2144,-0.214,-0.2135,-0.2132,-0.213,-0.2128,-0.2123,-0.2117,-0.212,-0.2118,-0.2119,-0.2115,-0.2107,-0.2119,-0.2119,-0.2117,-0.2097,-0.2095,-0.2093,-0.2109,-0.2108,-0.2108,-0.2097,0,-0.2137,-0.2128,-0.213,-0.2122,-0.2118,-0.2122,-0.2118,-0.2117,-0.2117,-0.2113,-0.2114,-0.2109,-0.2114,-0.2112,-0.2109,-0.2109,-0.2103,-0.2109,-0.2104,-0.2104,-0.2105,-0.2091,-0.2089,-0.2079,-0.2096,-0.2096,-0.2096,0,-0.2121,-0.2119,-0.2111,-0.2111,-0.2109,-0.2105,-0.2103,-0.2099,-0.2098,-0.2099,-0.2097,-0.2099,-0.2094,-0.2099,-0.2092,-0.2097,-0.2095,-0.2094,-0.2094,-0.2093,-0.2099,-0.209,-0.2075,-0.2074,-0.2093,-0.2094,-0.2094,0,-0.211,-0.2105,-0.2099,-0.2098,-0.2098,-0.2095,-0.2095,-0.2094,-0.2092,-0.209,-0.2089,-0.2086,-0.2084,-0.2082,-0.2083,-0.2087,-0.2076,-0.2081,-0.2076,-0.2076,-0.2073,-0.2073,-0.2058,-0.2072,-0.2072,-0.2072,-0.2072,0,-0.2096,-0.2091,-0.2094,-0.209,-0.2085,-0.2087,-0.2081,-0.2081,-0.2081,-0.2077,-0.2081,-0.2077,-0.2079,-0.2076,-0.2077,-0.2072,-0.2071,-0.2071,-0.2071,-0.2071,-0.2071,-0.2069,-0.207,-0.2072,-0.2072,-0.2072,-0.2072,0,-0.2082,-0.2084,-0.2078,-0.2079,-0.2079,-0.2074,-0.2075,-0.2071,-0.2072,-0.2068,-0.2067,-0.2068,-0.2065,-0.2066,-0.2062,-0.2063,-0.2056,-0.2057,-0.2056,-0.2057,-0.2052,-0.2052,-0.2034,-0.2032,-0.2048,-0.2048,-0.2048,0,-0.2073,-0.2069,-0.207,-0.2068,-0.2067,-0.2064,-0.2063,-0.2065,-0.2064,-0.2062,-0.2059,-0.2056,-0.2054,-0.2048,-0.2049,-0.2046,-0.2047,-0.2041,-0.2046,-0.2046,-0.2047,-0.2047,-0.2047,-0.204,-0.204,-0.2039,-0.2039,0,-0.2057,-0.2059,-0.2056,-0.2055,-0.2053,-0.2051,-0.205,-0.2048,-0.2051,-0.2049,-0.2046,-0.2044,-0.2041,-0.2038,-0.2035,-0.2035,-0.2037,-0.2038,-0.2036,-0.2035,-0.2035,-0.2035,-0.2053,-0.2038,-0.2038,-0.2038,-0.2038,-0.2038,-0.2045,-0.2042,-0.2042,-0.204,-0.2039,-0.2038,-0.2036,-0.2037,-0.2034,-0.2032,-0.2034,-0.203,-0.2029,-0.2027,-0.2026,-0.2023,-0.2025,-0.2023,-0.2023,-0.2022,-0.2022,-0.2036,-0.2023,-0.2023,-0.2023,-0.2023,-0.2023,0,-0.203,-0.203,-0.2028,-0.2027,-0.2025,-0.2028,-0.2027,-0.2025,-0.2022,-0.2022,-0.202,-0.2016,-0.2014,-0.2014,-0.2012,-0.201,-0.2011,-0.2009,-0.2009,-0.2009,-0.202,-0.2021,-0.2008,-0.2008,-0.2008,-0.2008,-0.2008,-0.2008,-0.2021,-0.2016,-0.2018,-0.2013,-0.2013,-0.201,-0.2009,-0.2009,-0.2008,-0.2005,-0.2003,-0.2003,-0.2003,-0.2001,-0.1999,-0.1999,-0.1998,-0.1996,-0.1996,-0.2006,-0.2008,-0.2009,-0.2011,-0.1995,-0.1995,-0.1986,-0.1986,-0.1986]}]]